"Pseudo-MPEC" for P22hM0Y

Created 2025 Dec 3 13:35:11 UT using Find_Orb

Click here for an explanation of pseudo-MPECs

 
 Astrometry: 
     P22hM0Y* C2025 11 25.38879105 22 20.205+23 18 44.81   ~BPCK 21.74wXNEOCPF52
     P22hM0Y  C2025 11 25.39843805 22 19.341+23 18 48.96   ~BPCK 22.19wXNEOCPF52
     P22hM0Y  C2025 11 25.41765605 22 17.589+23 18 57.13   ~BPCK 22.13wXNEOCPF52
     P22hM0Y  C2025 11 25.52547405 22 07.787+23 19 42.26   ~BPI5 21.57GVNEOCPF52
     P22hM0Y  C2025 11 25.52611505 22 07.725+23 19 42.55   ~BPI5 21.59GVNEOCPF52
     P22hM0Y KC2025 11 26.25224105 21 06.440+23 24 38.77   ~BSCo 21.68GVNEOCPV06
     P22hM0Y KC2025 11 26.25358305 21 06.336+23 24 39.42   ~BSCo 21.82GVNEOCPV06
     P22hM0Y KC2025 11 26.25492505 21 06.217+23 24 39.85   ~BSCo 21.53GVNEOCPV06
     P22hM0Y KC2025 11 26.25626705 21 06.084+23 24 40.43   ~BSCo 21.61GVNEOCPV06
     P22hM0Y  C2025 11 26.41520505 20 51.592+23 25 45.25   ~BQAZ 21.8 GWNEOCPH01
     P22hM0Y  C2025 11 26.41933605 20 51.216+23 25 46.89   ~BQAZ 21.3 GWNEOCPH01
     P22hM0Y  C2025 11 26.43131705 20 50.133+23 25 51.59   ~BQAZ 21.8 GWNEOCPH01
     P22hM0Y  C2025 11 26.43570605 20 49.734+23 25 53.28   ~BQAZ 21.8 GWNEOCPH01
     P22hM0Y 1C2025 11 26.54146105 20 40.729+23 26 40.12   ~BQNZ 21.38GVNEOCPT12
     P22hM0Y 1C2025 11 26.54272105 20 40.612+23 26 40.61   ~BQNZ 21.48GVNEOCPT12
     P22hM0Y 1C2025 11 26.54390105 20 40.509+23 26 41.05   ~BQNZ 21.60GVNEOCPT12
     P22hM0Y KC2025 12 03.48510805 10 35.800+24 09 38.45   ~C3CK 21.20GVNEOCPV06
     P22hM0Y KC2025 12 03.48987505 10 35.378+24 09 40.68   ~C3CK 21.60GVNEOCPV06
     P22hM0Y KC2025 12 03.49464105 10 34.972+24 09 42.41   ~C3CK 21.72GVNEOCPV06
     P22hM0Y KC2025 12 03.49940605 10 34.489+24 09 43.06   ~C3CK 22.07GVNEOCPV06

Station data:
(F52) Pan-STARRS 2, Haleakala  (N20.707382 W156.255910)  US/Hawaii.
   Observers J. Herman, T. Lowe, P. Minguez, A. Schultz, I. Smith. Measurers
   K. Chambers, T. de Boer, J. Fairlamb, H. Gao, M. Huber, C.-C. Lin, E.
   Magnier, Y. Ramanjooloo, R. Wainscoat, R. Weryk. 1.8-m Ritchey-Chrétien +
   CCD.
(H01) Magdalena Ridge Observatory, Socorro  (N33.984833 W107.189333)  US/New
   Mexico.  Observers W. H. Ryan, E. V. Ryan. Measurer W. H. Ryan. 2.4-m
   f/8.9 reflector + CCD.
(T12) Mauna Kea-UH/Tholen NEO Follow-Up (2.24-m)  (N19.822991 W155.469434)
   US/Hawaii.  Observer R. Weryk. 2.24-m f/10.1 University of Hawaii
   reflector.
(V06) Catalina Sky Survey-Kuiper  (N32.416871 W110.732550)  US/Arizona.
   Measurers T. Beuden, V. F. Carvajal, D. Fay, J. B. Fazekas, D. C. Fuls, A.
   R. Gibbs, A. D. Grauer, H. Gröller, J. K. Hogan, R. A. Kowalski, S. M.
   Larson, G. J. Leonard, D. Rankin, R. L. Seaman, F. C. Shelly, K. W.
   Wierzchoś. 1.55-m reflector + CCD.

Orbital elements:  P22hM0Y
   Perihelion 2025 Aug 19.741646 +/- 0.295 TT = 17:47:58.2 (JD 2460907.241646)
Epoch 2025 Dec  3.0 TT = JDT 2461012.5   Earth MOID: 0.2540   Ma: 0.0310
M  27.791623747 +/- 0.06            (J2000 ecliptic)             AutoNEOCP
n   0.264032476 +/- 0.00127         Peri.  289.162473 +/- 0.11
a   2.406381517 +/- 0.00771         Node    69.498064 +/- 0.023
e   0.48701198 +/- 0.00139          Incl.    5.814408 +/- 0.034
P   3.73290                H 21.26  G  0.15   U  8.3
q 1.234444889 +/- 0.000777    Q 3.578318145 +/- 0.0148
From 20 observations 2025 Nov. 25-Dec. 3; mean residual 0".17
Residuals in arcseconds: 
251125 F52  .00   .04+    251126 V06  .05-  .01+    251126 T12  .02-  .01+    
251125 F52  .08+  .00     251126 V06  .21-  .01+    251126 T12  .04+  .01-    
251125 F52  .10-  .11-    251126 H01  .02+  .04+    251203 V06  .02+  .50-    
251125 F52  .04+  .03-    251126 H01  .00   .05+    251203 V06  .08+  .25+    
251125 F52  .01-  .00     251126 H01  .01+  .05+    251203 V06  .34+  .50+    
251126 V06  .31-  .07+    251126 H01  .02-  .02+    251203 V06  .46-  .33-    
251126 V06  .08-  .15+    251126 T12  .00   .01+    

Ephemerides (geocentric):
Date (UTC) HH   RA             Dec           delta  r     elong  mag " sig PA
---- --------  ------------   ------------  ------ ------ -----  --- --------
2025 12 03 14  05 10 27.989   +24 10 16.04  .65527 1.6376 172.5 21.8 .060 154
2025 12 03 15  05 10 24.378   +24 10 29.99  .65548 1.6379 172.5 21.8 .063 155
2025 12 03 16  05 10 20.769   +24 10 43.93  .65569 1.6381 172.6 21.8 .067 156
2025 12 03 17  05 10 17.160   +24 10 57.85  .65590 1.6384 172.6 21.8 .070 157
2025 12 03 18  05 10 13.552   +24 11 11.75  .65611 1.6386 172.7 21.8 .074 158
2025 12 03 19  05 10 09.945   +24 11 25.63  .65632 1.6389 172.8 21.8 .077 158
2025 12 03 20  05 10 06.339   +24 11 39.49  .65653 1.6391 172.8 21.8 .081 159
2025 12 03 21  05 10 02.734   +24 11 53.33  .65674 1.6394 172.9 21.8 .084 159
2025 12 03 22  05 09 59.130   +24 12 07.16  .65695 1.6396 172.9 21.8 .088 159
2025 12 03 23  05 09 55.527   +24 12 20.97  .65716 1.6399 173.0 21.8 .092 160
2025 12 04 00  05 09 51.925   +24 12 34.75  .65737 1.6401 173.0 21.8 .095 160
2025 12 04 01  05 09 48.324   +24 12 48.53  .65758 1.6404 173.1 21.8 .099 160
2025 12 04 02  05 09 44.724   +24 13 02.28  .65780 1.6406 173.1 21.8 .103 161
2025 12 04 03  05 09 41.125   +24 13 16.01  .65801 1.6409 173.2 21.8 .107 161
2025 12 04 04  05 09 37.527   +24 13 29.73  .65822 1.6411 173.2 21.8 .111 161
2025 12 04 05  05 09 33.930   +24 13 43.42  .65844 1.6414 173.3 21.8 .115 161
2025 12 04 06  05 09 30.334   +24 13 57.10  .65865 1.6416 173.3 21.8 .119 161
2025 12 04 07  05 09 26.740   +24 14 10.76  .65886 1.6419 173.4 21.8 .123 161
2025 12 04 08  05 09 23.146   +24 14 24.40  .65908 1.6421 173.5 21.8 .127 161
2025 12 04 09  05 09 19.554   +24 14 38.03  .65929 1.6424 173.5 21.8 .131 162
2025 12 04 10  05 09 15.962   +24 14 51.63  .65951 1.6426 173.6 21.8 .136 162
2025 12 04 11  05 09 12.372   +24 15 05.22  .65972 1.6429 173.6 21.8 .140 162
2025 12 04 12  05 09 08.783   +24 15 18.79  .65994 1.6431 173.7 21.8 .144 162
2025 12 04 13  05 09 05.195   +24 15 32.34  .66016 1.6434 173.7 21.8 .148 162
2025 12 04 14  05 09 01.608   +24 15 45.87  .66037 1.6436 173.8 21.8 .153 162
2025 12 04 15  05 08 58.023   +24 15 59.38  .66059 1.6439 173.8 21.8 .157 162
2025 12 04 16  05 08 54.438   +24 16 12.88  .66081 1.6441 173.9 21.8 .162 162
2025 12 04 17  05 08 50.855   +24 16 26.35  .66103 1.6444 173.9 21.8 .166 162
2025 12 04 18  05 08 47.273   +24 16 39.81  .66124 1.6446 174.0 21.8 .171 162
2025 12 04 19  05 08 43.693   +24 16 53.25  .66146 1.6449 174.0 21.8 .175 162
2025 12 04 20  05 08 40.113   +24 17 06.67  .66168 1.6451 174.1 21.8 .180 162
2025 12 04 21  05 08 36.535   +24 17 20.07  .66190 1.6454 174.1 21.8 .185 162
2025 12 04 22  05 08 32.958   +24 17 33.46  .66212 1.6456 174.2 21.8 .190 161
2025 12 04 23  05 08 29.382   +24 17 46.83  .66234 1.6459 174.2 21.8 .194 161
2025 12 05 00  05 08 25.808   +24 18 00.17  .66256 1.6461 174.3 21.8 .199 161
2025 12 05 01  05 08 22.234   +24 18 13.50  .66278 1.6464 174.4 21.8 .204 161
2025 12 05 02  05 08 18.663   +24 18 26.81  .66300 1.6466 174.4 21.8 .209 161
2025 12 05 03  05 08 15.092   +24 18 40.11  .66322 1.6469 174.5 21.8 .214 161
2025 12 05 04  05 08 11.523   +24 18 53.38  .66345 1.6471 174.5 21.8 .219 161
2025 12 05 05  05 08 07.955   +24 19 06.64  .66367 1.6474 174.6 21.8 .224 161
2025 12 05 06  05 08 04.388   +24 19 19.87  .66389 1.6476 174.6 21.8 .229 161
2025 12 05 07  05 08 00.823   +24 19 33.09  .66411 1.6479 174.7 21.8 .234 161
2025 12 05 08  05 07 57.259   +24 19 46.29  .66434 1.6481 174.7 21.8 .240 161
2025 12 05 09  05 07 53.697   +24 19 59.48  .66456 1.6484 174.8 21.8 .245 160
2025 12 05 10  05 07 50.136   +24 20 12.64  .66478 1.6486 174.8 21.8 .250 160
2025 12 05 11  05 07 46.576   +24 20 25.78  .66501 1.6489 174.9 21.8 .256 160
2025 12 05 12  05 07 43.018   +24 20 38.91  .66523 1.6491 174.9 21.8 .261 160
2025 12 05 13  05 07 39.461   +24 20 52.02  .66546 1.6494 175.0 21.8 .266 160